Home   Weather   Faridabad   Past weeks
Flag for India

Past Weather in Faridabad, Haryana, India — Yesterday and Last 2 Weeks

Now
90 °F

Scattered clouds.


Feels Like: 96 °F
Forecast: 87 / 77 °F
Wind: 8 mph from East

Location: New Delhi Palam Airport

Current Time: Sep 18, 2019 at 5:45:11 pm

Latest Report: Sep 18, 2019 at 5:00 pm


Visibility: 3 mi

Pressure: 29.74 "Hg

Humidity: 55%

Dew Point: 72 °F

Location of FaridabadLocation

Past Weather in Faridabad — Graph

°F

Faridabad Temperature Yesterday

Maximum temperature yesterday: 97 °F (at 3:30 pm)
Minimum temperature yesterday: 77 °F (at 8:30 am)
Average temperature yesterday: 88 °F

High & Low Weather Summary for the Past Weeks

 TemperatureHumidityPressure
High100 °F (Sep 11, 3:00 pm)94% (Sep 5, 12:30 am)29.86 "Hg (Sep 5, 12:30 am)
Low77 °F (Sep 17, 8:30 am)40% (Sep 11, 3:00 pm)29.47 "Hg (Sep 10, 5:00 pm)
Average88 °F71%29.62 "Hg
* Reported Sep 3 4:30 pm — Sep 18 4:30 pm, Faridabad. Weather by CustomWeather, © 2019

Note: Actual official high and low records may vary slightly from our data, if they occured in-between our weather recording intervals... More about our weather records

Advertising

Faridabad Weather History for the Previous 24 Hours

Scroll right to see more
 ConditionsComfort  
Time TempWeatherWind HumidityBarometerVisibility
4:30 pm
Wed, Sep 18
91 °FScattered clouds.8 mph56%29.77 "Hg3 mi
4:00 pm91 °FScattered clouds.8 mph56%29.77 "Hg3 mi
3:30 pm91 °FScattered clouds.8 mph56%29.77 "Hg3 mi
3:00 pm91 °FScattered clouds.8 mph56%29.77 "Hg3 mi
2:30 pm91 °FScattered clouds.7 mph56%29.77 "Hg3 mi
2:00 pm91 °FScattered clouds.8 mph52%29.80 "Hg3 mi
1:30 pm91 °FHaze.6 mph52%29.80 "Hg3 mi
1:00 pm91 °FHaze.8 mph52%29.80 "Hg3 mi
12:30 pm91 °FHaze.7 mph52%29.83 "Hg3 mi
12:00 pm90 °FHaze.8 mph55%29.83 "Hg3 mi
11:30 am90 °FHaze.7 mph55%29.83 "Hg3 mi
11:00 am88 °FHaze.8 mph59%29.83 "Hg3 mi
10:30 am88 °FHaze.9 mph59%29.86 "Hg3 mi
10:00 am86 °FHaze.10 mph62%29.86 "Hg3 mi
9:30 am86 °FHaze.9 mph62%29.86 "Hg3 mi
9:00 am84 °FHaze.8 mph66%29.83 "Hg2 mi
8:30 am82 °FHaze.8 mph70%29.83 "Hg2 mi
8:00 am81 °FHaze.9 mph74%29.83 "Hg2 mi
7:30 am79 °FHaze.10 mph74%29.80 "Hg2 mi
7:00 am81 °FHaze.10 mph74%29.80 "Hg2 mi
6:30 am81 °FFog.12 mph79%29.77 "Hg2 mi
6:00 am81 °FFog.9 mph84%29.77 "Hg2 mi
5:30 am81 °FFog.9 mph84%29.74 "Hg2 mi
5:00 am81 °FFog.6 mph79%29.74 "Hg2 mi
4:30 am81 °FFog.7 mph79%29.74 "Hg2 mi
4:00 am82 °FHaze.5 mph74%29.71 "Hg2 mi
3:30 am82 °FHaze.5 mph74%29.71 "Hg2 mi
3:00 am84 °FHaze.5 mph70%29.74 "Hg2 mi
2:30 am84 °FHaze.5 mph70%29.74 "Hg2 mi
2:00 am84 °FHaze.5 mph70%29.74 "Hg2 mi
1:00 am84 °FHaze.5 mph70%29.71 "Hg2 mi
12:30 am86 °FHaze.5 mph66%29.71 "Hg2 mi
12:00 am86 °FHaze.5 mph66%29.71 "Hg2 mi
11:30 pm
Tue, Sep 17
86 °FHaze.5 mph70%29.71 "Hg2 mi
11:00 pm86 °FHaze.3 mph70%29.71 "Hg2 mi
10:30 pm86 °FHaze.5 mph70%29.71 "Hg2 mi
10:00 pm86 °FHaze.6 mph70%29.71 "Hg2 mi
9:30 pm88 °FHaze.6 mph66%29.71 "Hg2 mi
9:00 pm88 °FHaze.7 mph70%29.71 "Hg2 mi
8:30 pm90 °FHaze.7 mph67%29.71 "Hg2 mi
8:00 pm91 °FHaze.5 mph56%29.68 "Hg2 mi
7:30 pm91 °FHaze.3 mph56%29.65 "Hg2 mi
7:00 pm91 °FHaze.3 mph56%29.65 "Hg2 mi
6:30 pm93 °FHaze.5 mph53%29.65 "Hg2 mi
6:00 pm93 °FHaze.3 mph53%29.62 "Hg2 mi
5:30 pm95 °FHaze.5 mph47%29.62 "Hg3 mi
5:00 pm97 °FHaze.5 mph44%29.62 "Hg3 mi
Weather by CustomWeather, © 2019

See weather overview